Калиновое

Украина / Донецкая область     47°27′25″N   37°27′56″E
темп.,
°C
ветер,
м/с
пор.,
м/с
влажн.,
%
обл.,
%
осадки,
мм/ч
давл.,
гПа
погр.,
м
16 июня, ср
ср1600:00+17ююв2289100 1.4 100911
03:00+16юз229310 2.6 101019
06:00+17ююз2495100 0.0 1010157
09:00+20ююв5677100 0.1 1011526
12:00+24юз34566 0.0 10111144
15:00+26всв11435 0.0 10101374
18:00+25всв34550 0.0 10101246
21:00+18всв51287100 0.8 1011285
17 июня, чт
чт1700:00+16ссв71391100 24.9 1012426
03:00+17с81793100 30.9 1010425
06:00+19всв71691100 2.8 1010563
09:00+20всв91488100 3.9 1011746
12:00+18всв81395100 2.1 1013560
15:00+19в5892100 3.1 1013468
18:00+18в4697100 4.1 1014302
21:00+17всв2598100 10.1 1014258
18 июня, пт
пт1800:00+16в5109773 0.6 1015383
03:00+16в599899 0.9 1016323
06:00+16в479478 0.1 1017430
09:00+19вюв4681100 0.1 1019603
12:00+21в4672100 0.1 1019865
15:00+17всв5109573 1.8 1020531
18:00+19всв6118248 0.0 1020781
21:00+18св3990100 0.3 1020262
19 июня, сб
сб1900:00+17св6148290 0.0 1019523
03:00+15всв715833 0.0 1019465
06:00+15всв714820 0.0 1019423
09:00+19в811720 0.0 1019582
12:00+23в810660 0.0 1019863
15:00+25в812570 0.0 10181204
18:00+23в813660 0.0 10181029
21:00+20всв817712 0.0 1018517
20 июня, вс
вс2000:00+19всв819568 0.0 1017446
03:00+18всв819575 0.0 1017460
06:00+17всв8196443 0.0 1017403
09:00+21всв817590 0.0 1016599
12:00+24в913515 0.0 1016893
15:00+26в912561 0.3 10151366
18:00+25в712640 0.0 1014857
21:00+23в817650 0.0 1014410